{"data":{"norad_id":28372,"epoch":"2026-05-24T23:58:44.895936Z","epoch_age_seconds":85182,"freshness":"FRESH","line1":"1 28372U 04025G   26144.99913074  .00000176  00000+0  55524-4 0  9990","line2":"2 28372  98.6309 155.0931 0043722 224.6179 135.1493 14.51763906158543","mean_motion":14.51763906,"eccentricity":0.0043722,"inclination_deg":98.6309,"raan_deg":155.0931,"arg_perigee_deg":224.6179,"mean_anomaly_deg":135.1493,"bstar":5.5524e-5,"rev_number":15854,"period_min":99.189681879307,"perigee_km":688.85922569039,"apogee_km":750.92724126401,"semimajor_km":7098.0302334772,"source":"CELESTRAK","updated_at":"2026-05-25T13:37:55.059827Z"}}